Location: Fiume de Mogoro
(39.8167°N, 8.5667°E)
Time: 15:16:09
(UTC+00:00)

Daily predictions for brighter satellites

Satellite Brightness Start Highest point End
(mag) Time Altitude Azimuth Time Altitude Azimuth Time Altitude Azimuth
Cosmos 1340 Rocket 3.6 16:28:11 10° NNE 16:31:48 30° ENE 16:35:26 10° SE
CZ-4C R/B 4.3 16:28:35 10° N 16:32:35 16° NNE 16:36:56 10° ENE
Cosmos 1777 Rocket 4.5 16:28:51 10° NNW 16:34:07 69° WSW 16:39:21 10° S
Cosmos 1464 Rocket 4.1 16:29:02 10° S 16:35:23 88° E 16:41:49 10° N
Cosmos 1408 Rocket 3.5 16:33:28 10° N 16:37:47 62° E 16:42:06 10° SSE
CORIOLIS 4.3 16:34:11 10° SSE 16:39:23 53° ENE 16:44:39 10° N
Cosmos 1743 Rocket 4.1 16:38:58 10° N 16:42:59 35° ENE 16:46:56 10° SE
Cosmos 1933 4.2 16:39:54 10° SSE 16:43:27 30° E 16:47:00 10° NNE
Cosmos 1898 Rocket 4.3 16:40:31 10° N 16:45:01 28° ENE 16:49:27 10° ESE
Cosmos 468 Rocket 4.2 16:41:06 10° S 16:46:00 49° ESE 16:50:59 10° NNE
H-2A R/B 2.6 16:41:49 10° SE 16:46:34 36° ENE 16:51:12 10° N
GPS 2-04 Rocket1 4.1 16:43:43 10° SW 16:47:23 31° SSE 16:51:00 10° ESE
CZ-2D R/B 3.9 16:44:49 10° SE 16:48:18 33° ENE 16:51:46 10° N
Cosmos 1833 Rocket 3.0 16:44:23 10° S 16:49:42 47° ESE 16:55:04 10° NE
Cosmos 540 Rocket 4.2 16:45:50 10° SSE 16:50:15 31° E 16:54:42 10° NE
Nadezhda 4 Rocket 4.0 16:47:07 10° N 16:53:27 77° E 16:59:46 10° S
Meteor 1-20 Rocket 4.4 16:50:22 10° N 16:56:02 51° ENE 17:01:42 10° SSE
ARGOS 4.0 16:52:48 10° ESE 16:57:20 28° ENE 17:01:52 10° N
CZ-4B R/B 3.7 16:53:16 10° SE 16:58:13 36° ENE 17:03:05 10° N
ISS -1.3 16:57:03 10° NNW 16:58:14 11° N 16:59:26 10° NNE
Cosmos 1606 4.5 16:58:23 10° SW 17:01:47 33° WNW 17:05:13 10° NNW
PSLV R/B 3.6 16:59:53 10° SSE 17:03:30 61° ENE 17:07:10 10° N
SKYMED 2 4.1 16:59:52 10° NNE 17:03:53 36° E 17:07:54 10° SSE
Cosmos 1092 Rocket 4.1 16:58:38 10° N 17:04:53 55° E 17:11:03 10° SSE
ATLAS CENTAUR R/B 3.4 16:52:56 10° SW 17:05:14 85° NW 17:09:32 14° NE
AQUARIUS 4.2 17:02:20 10° SSE 17:06:49 84° W 17:11:20 10° NNW
SJ 16-02 3.1 17:02:48 10° NW 17:06:49 36° W 17:10:50 10° SSW
Cosmos 1939 Rocket 3.9 17:08:47 10° S 17:12:48 50° W 17:16:49 10° NNW
Cosmos 1500 Rocket 3.5 17:08:36 10° N 17:13:04 86° E 17:17:29 10° S
Cosmos 1428 Rocket 4.5 17:09:26 10° N 17:15:27 57° E 17:21:29 10° SSE
Lacrosse 5 4.2 17:13:51 10° WNW 17:18:06 27° WSW 17:22:19 10° S
MOS 1-B Rocket 4.0 17:14:08 10° NNE 17:19:59 76° ESE 17:26:38 10° S
CZ-2C R/B 2.6 17:16:30 10° NNE 17:21:39 59° E 17:26:44 10° S
USA 276 3.3 17:19:03 10° NW 17:21:45 26° NNE 17:21:52 26° NNE
CZ-4C R/B 4.2 17:23:43 23° ESE 17:23:43 23° ESE 17:25:44 10° SSE
Cosmos 1627 Rocket 4.4 17:17:11 10° N 17:23:21 65° E 17:29:24 10° SSE
Cosmos 1805 Rocket 3.4 17:19:48 10° N 17:24:07 64° E 17:28:24 10° SSE
Cosmos 1500 3.6 17:21:15 10° N 17:24:46 37° ENE 17:28:14 10° SSE
Cosmos 1763 Rocket 3.8 17:20:56 10° SSW 17:25:57 66° WNW 17:31:02 10° NNE
COSMOS 2455 3.0 17:20:53 10° S 17:26:39 51° ESE 17:30:31 21° NE
Cosmos 841 Rocket 3.5 17:23:30 10° S 17:28:31 54° ESE 17:32:02 19° NNE
Cosmos 1937 Rocket 3.6 17:26:18 10° N 17:31:29 51° ENE 17:36:39 10° SE
Sich 1 2.9 17:28:23 10° N 17:32:38 62° E 17:36:53 10° SSE
Cosmos 2279 Rocket 4.1 17:26:43 10° SSE 17:32:39 49° E 17:38:36 10° NNE
GEOS 3 Rocket 4.0 17:33:05 26° E 17:35:24 40° NE 17:40:14 10° NNW
YAOGAN 3 4.5 17:33:29 10° SSE 17:37:47 62° ENE 17:42:06 10° N
Meteor 1-25 Rocket 4.3 17:32:20 10° NNW 17:37:53 76° W 17:43:27 10° S
Landsat 5 3.3 17:35:36 22° NNE 17:38:09 63° ESE 17:42:08 10° S
Cosmos 1634 Rocket 4.1 17:37:47 10° S 17:44:06 83° W 17:50:29 10° N
Cosmos 990 Rocket 4.4 17:39:59 10° NNW 17:45:07 62° WSW 17:50:11 10° S
Centaur D-1A AC-32 4.5 17:43:14 10° SW 17:46:12 15° SSW 17:48:29 10° SSE
ATLAS 5 CENTAUR R/B 4.1 17:42:38 10° NNW 17:46:14 16° NNE 17:46:14 16° NNE
USA 229 DEB 3.9 17:39:01 10° NNW 17:46:28 76° NE 17:54:19 10° SE
USA 229 3.9 17:39:06 10° NNW 17:46:34 76° NE 17:54:25 10° SE
deb Chang Zheng 4 3.5 17:42:47 10° SSE 17:47:05 84° WSW 17:51:25 10° NNW
Cosmos 2369 3.8 17:42:36 10° NNW 17:48:13 53° ENE 17:51:46 22° SE
Meteor 2-16 Rocket 4.4 17:45:47 10° N 17:51:49 59° E 17:57:50 10° SSE
COSMO-SKYMED 1 3.0 17:47:42 10° N 17:52:00 63° WNW 17:56:17 10° SSW
Cosmos 1697 Rocket 2.6 17:47:53 10° NNW 17:53:33 88° ENE 17:59:09 10° SSE
Cosmos 1782 3.4 17:49:42 10° SSW 17:53:38 56° W 17:57:00 14° N
Cosmos 372 Rocket 4.0 17:50:13 10° N 17:55:20 52° ENE 17:56:20 45° ESE
Cosmos 1980 Rocket 2.3 17:50:32 10° NNW 17:56:01 47° ENE 17:56:40 45° E
Cosmos 1812 2.5 17:53:18 10° S 17:57:08 87° E 17:57:28 74° NNE
Okean O Rocket 1.8 17:55:26 10° S 17:59:51 74° WSW 18:04:19 10° NNW
Cosmos 2026 Rocket 4.3 17:54:29 10° NNW 18:00:34 66° W 18:06:34 10° S
Cosmos 1570 Rocket 4.0 17:56:02 10° S 18:01:09 56° ESE 18:01:34 55° E
Cosmos 858 Rocket 4.4 17:56:20 10° NNW 18:01:39 87° ENE 18:06:55 10° SSE
USA 234 4.4 17:55:43 10° SSE 18:01:48 41° SW 18:07:54 10° WNW
Cosmos 2082 Rocket 2.1 17:56:54 10° SSW 18:02:36 87° ESE 18:05:10 35° NNE
SL-08 RB Rocket 3.6 18:00:13 10° SSE 18:04:52 82° ENE 18:09:32 10° N
IRAS Rocket 4.3 18:04:48 52° E 18:04:57 52° ESE 18:10:18 10° S
Cosmos 2084 3.6 18:03:46 10° NW 18:08:07 77° WSW 18:09:02 55° SSE
NOSS 3-1 (A) 4.3 18:02:11 10° NW 18:10:00 76° WSW 18:18:56 10° SSE
COSMOS 2406 4.1 18:05:44 10° SW 18:11:16 48° WNW 18:15:25 18° N
Cosmos 2180 Rocket 4.4 18:05:46 10° S 18:12:07 79° E 18:17:45 14° N
Cosmos 2278 4.4 18:08:22 10° NNW 18:12:17 38° NNE 18:12:17 38° NNE
Meteor 2-6 Rocket 4.1 18:09:40 10° S 18:15:30 79° E 18:17:22 45° NNE
Cosmos 1814 Rocket 3.9 18:12:26 10° SSW 18:17:42 88° WNW 18:18:31 65° NNE
NOSS 2-2 (D) 4.4 18:13:46 10° NNW 18:19:14 63° NE 18:19:47 61° E
NOSS 2-2 (E) 4.5 18:14:48 10° NNW 18:20:31 77° NE 18:23:03 44° SE
Meteor 1-10 Rocket 4.4 18:16:22 10° S 18:21:11 56° SE 18:21:11 56° SE
CZ-4C R/B 3.2 18:15:45 10° NNW 18:22:51 49° NE 18:23:06 49° NE
Feng Yun 1-1 Rocket 4.4 18:19:34 10° S 18:25:29 77° WSW 18:31:26 10° NNW
H-2A R/B 4.1 18:21:37 10° SSW 18:25:59 27° W 18:30:18 10° NW
GPS 2-04 Rocket1 4.1 18:22:28 10° WSW 18:25:14 35° SW 18:25:14 35° SW
Cosmos 2208 Rocket 4.2 18:24:30 10° SSW 18:28:59 63° S 18:28:59 63° S
Cosmos 1666 Rocket 4.3 18:28:04 10° NNW 18:32:23 51° W 18:36:39 10° SSW
Cosmos 1151 Rocket 4.3 18:29:48 10° SSW 18:33:49 39° WNW 18:34:31 36° NW
Meteor 2-15 4.3 18:28:48 10° S 18:34:56 86° W 18:36:08 60° N
COSMOS 2455 4.4 19:07:46 10° WSW 19:12:51 28° NW 19:13:42 27° NW
Cosmos 1980 Rocket 4.3 19:35:18 10° NW 19:38:33 22° W 19:38:33 22° W
CZ-4C R/B 4.4 20:04:22 10° NW 20:08:20 31° WNW 20:08:20 31° WNW
